EA5CH Weather Reports


Display with metric or nautical units.
time (UTC)temp
F
wind
direction
speed
MPH
gust
MPH
rain 1hr
in
rain 24hr
in
rain mn
in
humidity
%
barometer
mb
20260507132519 70 135 3.0 10.0 0.00 0.00 0.00 74 1011.6
20260507131519 70 90 5.0 12.0 0.00 0.00 0.00 71 1011.8
20260507130519 70 68 6.0 14.0 0.00 0.00 0.00 71 1012.1
20260507125519 71 135 6.0 16.0 0.00 0.00 0.00 70 1012.1
20260507124519 71 45 5.0 12.0 0.00 0.00 0.00 70 1012.2
20260507123519 70 68 5.0 10.0 0.00 0.00 0.00 71 1012.3
20260507122519 70 68 8.0 17.0 0.00 0.00 0.00 72 1012.4
20260507121519 70 90 6.0 14.0 0.00 0.00 0.00 70 1012.4
20260507120519 70 68 6.0 15.0 0.00 0.00 0.00 69 1012.5
20260507115519 71 90 4.0 10.0 0.00 0.00 0.00 71 1012.5
20260507114519 70 135 6.0 13.0 0.00 0.00 0.00 73 1012.7
20260507113519 71 113 4.0 12.0 0.00 0.00 0.00 71 1012.8
20260507112519 71 90 4.0 10.0 0.00 0.00 0.00 72 1012.8
20260507111519 70 90 4.0 11.0 0.00 0.00 0.00 71 1013.0
20260507110519 70 113 4.0 13.0 0.00 0.00 0.00 71 1013.1
20260507105519 69 113 5.0 12.0 0.00 0.00 0.00 72 1013.2
20260507104519 69 113 6.0 13.0 0.00 0.00 0.00 71 1013.2
20260507103517 69 68 5.0 11.0 0.00 0.00 0.00 70 1013.4
20260507102519 70 158 3.0 8.0 0.00 0.00 0.00 70 1013.2
20260507101517 69 68 5.0 12.0 0.00 0.00 0.00 70 1013.3
20260507100519 69 113 4.0 10.0 0.00 0.00 0.00 69 1013.3
20260507095519 69 113 3.0 8.0 0.00 0.00 0.00 70 1013.4
20260507094519 69 90 4.0 9.0 0.00 0.00 0.00 71 1013.5
20260507093519 69 113 3.0 9.0 0.00 0.00 0.00 70 1013.6
20260507092519 69 68 4.0 11.0 0.00 0.00 0.00 68 1013.6
20260507091519 69 113 3.0 7.0 0.00 0.00 0.00 68 1013.5
20260507090517 69 158 3.0 8.0 0.00 0.00 0.00 67 1013.5
20260507085519 68 135 4.0 9.0 0.00 0.00 0.00 67 1013.4
20260507084519 68 68 4.0 11.0 0.00 0.00 0.00 66 1013.5
20260507083517 68 113 3.0 9.0 0.00 0.00 0.00 66 1013.4
20260507082519 69 113 3.0 9.0 0.00 0.00 0.00 66 1013.5
20260507081519 69 113 3.0 10.0 0.00 0.00 0.00 65 1013.5
20260507080519 69 248 3.0 10.0 0.00 0.00 0.00 64 1013.3
20260507075517 69 135 3.0 8.0 0.00 0.00 0.00 65 1013.1
20260507074519 68 90 2.0 7.0 0.00 0.00 0.00 64 1013.0
20260507073519 68 68 3.0 8.0 0.00 0.00 0.00 64 1013.0
20260507072538 68 113 3.0 8.0 0.00 0.00 0.00 63 1013.0
20260507071519 68 68 3.0 8.0 0.00 0.00 0.00 63 1012.9
20260507070519 67 68 4.0 8.0 0.00 0.00 0.00 62 1012.8
20260507065519 67 90 1.0 4.0 0.00 0.00 0.00 62 1012.9
20260507064517 66 0.0 0.0 0.00 0.00 0.00 66 1013.0
20260507063519 64 0.0 0.0 0.00 0.00 0.00 69 1012.9
20260507062519 62 0.0 0.0 0.00 0.00 0.00 71 1013.0
20260507061537 61 0.0 0.0 0.00 0.00 0.00 71 1013.1
20260507060519 61 0.0 0.0 0.00 0.00 0.00 72 1013.0
20260507055517 60 0.0 0.0 0.00 0.00 0.00 73 1013.0
20260507054519 60 0.0 0.0 0.00 0.00 0.00 73 1012.9
20260507053539 59 0.0 0.0 0.00 0.00 0.00 74 1012.9
20260507052517 59 0.0 0.0 0.00 0.00 0.00 74 1012.6
20260507051519 59 0.0 0.0 0.00 0.00 0.00 75 1012.6
20260507050519 59 0.0 2.0 0.00 0.00 0.00 76 1012.5
20260507045538 58 0.0 1.0 0.00 0.00 0.00 77 1012.6
20260507044519 58 0.0 2.0 0.00 0.00 0.00 76 1012.4
20260507043519 59 0.0 2.0 0.00 0.00 0.00 77 1012.4
20260507042519 59 0.0 0.0 0.00 0.00 0.00 77 1012.4
20260507041517 59 0.0 0.0 0.00 0.00 0.00 76 1012.3
20260507040539 59 0.0 0.0 0.00 0.00 0.00 77 1012.2
20260507035519 59 0.0 0.0 0.00 0.00 0.00 77 1012.2
20260507034517 59 0.0 0.0 0.00 0.00 0.00 78 1012.2
20260507033517 59 0.0 0.0 0.00 0.00 0.00 78 1012.4
20260507032519 59 0.0 0.0 0.00 0.00 0.00 78 1012.4
20260507031519 59 0.0 0.0 0.00 0.00 0.00 79 1012.5
20260507030517 59 0.0 0.0 0.00 0.00 0.00 78 1012.6
20260507025519 59 0.0 0.0 0.00 0.00 0.00 79 1012.5
20260507024519 59 0.0 0.0 0.00 0.00 0.00 79 1012.6
20260507023517 60 0.0 2.0 0.00 0.00 0.00 78 1012.8
20260507022517 60 0.0 0.0 0.00 0.00 0.00 78 1012.9
20260507021519 60 0.0 0.0 0.00 0.00 0.00 78 1013.0
20260507020519 60 0.0 0.0 0.00 0.00 0.00 78 1012.9
20260507015517 60 0.0 0.0 0.00 0.00 0.00 78 1012.9
20260507014519 60 0.0 0.0 0.00 0.00 0.00 78 1012.8
20260507013519 60 0.0 0.0 0.00 0.00 0.00 79 1012.8
20260507012517 60 0.0 1.0 0.00 0.00 0.00 79 1012.7
20260507011519 60 0.0 1.0 0.00 0.00 0.00 78 1012.8
20260507010519 61 0.0 1.0 0.00 0.00 0.00 77 1013.0
20260507005517 61 0.0 0.0 0.00 0.00 0.00 77 1012.9
20260507004517 61 0.0 0.0 0.00 0.00 0.00 76 1013.0
20260507003539 62 0.0 0.0 0.00 0.00 0.00 76 1013.0
20260507002519 62 0.0 1.0 0.00 0.00 0.00 76 1013.1
20260507001537 62 45 1.0 2.0 0.00 0.00 0.00 76 1013.2
20260507000519 62 45 1.0 4.0 0.00 0.00 0.00 76 1013.2
20260506235519 62 0 1.0 3.0 0.00 0.00 0.00 76 1013.4
20260506234517 62 23 1.0 3.0 0.00 0.00 0.00 76 1013.4
20260506233517 62 23 1.0 3.0 0.00 0.00 0.00 76 1013.5
20260506232519 62 23 2.0 5.0 0.00 0.00 0.00 76 1013.5
20260506231519 62 45 2.0 6.0 0.00 0.00 0.00 75 1013.6
20260506230517 62 0 2.0 6.0 0.00 0.00 0.00 76 1013.6
20260506225519 62 45 2.0 5.0 0.00 0.00 0.00 77 1013.6
20260506224519 62 23 1.0 4.0 0.00 0.00 0.00 77 1013.5
20260506223517 62 45 2.0 5.0 0.00 0.00 0.00 77 1013.6
20260506222519 62 45 1.0 5.0 0.00 0.00 0.00 77 1013.8
20260506221519 62 23 1.0 4.0 0.00 0.00 0.00 77 1013.8
20260506220520 62 45 1.0 3.0 0.00 0.00 0.00 77 1013.9
20260506215539 62 0.0 2.0 0.00 0.00 0.00 77 1014.0
20260506214517 63 23 1.0 4.0 0.00 0.00 0.00 77 1014.1
20260506213537 62 0 2.0 4.0 0.00 0.00 0.00 77 1014.1
20260506212519 62 0 1.0 3.0 0.00 0.00 0.00 77 1014.0
20260506211518 63 0 2.0 4.0 0.00 0.00 0.00 76 1014.1
20260506210517 63 23 2.0 5.0 0.00 0.00 0.00 76 1013.8
20260506205519 63 0 2.0 5.0 0.00 0.00 0.00 76 1013.8
20260506204519 64 0.0 4.0 0.00 0.00 0.00 76 1013.8
20260506203517 64 23 1.0 3.0 0.00 0.00 0.00 75 1013.7
20260506202537 64 90 4.0 8.0 0.00 0.00 0.00 76 1013.6
20260506201519 64 68 4.0 10.0 0.00 0.00 0.00 76 1013.3
20260506200519 65 68 3.0 8.0 0.00 0.00 0.00 76 1013.3
20260506195518 65 68 2.0 6.0 0.00 0.00 0.00 76 1013.2
20260506194519 65 68 3.0 8.0 0.00 0.00 0.00 76 1012.9
20260506193539 65 68 5.0 14.0 0.00 0.00 0.00 76 1012.7
20260506192518 65 68 4.0 12.0 0.00 0.00 0.00 76 1012.8
20260506191517 65 225 5.0 11.0 0.00 0.00 0.00 76 1012.7
20260506190519 65 225 4.0 9.0 0.00 0.00 0.00 76 1012.6
20260506185520 65 68 4.0 12.0 0.00 0.00 0.00 75 1012.5
20260506184517 65 45 4.0 11.0 0.00 0.00 0.00 76 1012.5
20260506183517 65 225 5.0 11.0 0.00 0.00 0.00 75 1012.5
20260506182517 66 90 5.0 11.0 0.00 0.00 0.00 75 1012.4
20260506181517 66 68 5.0 13.0 0.00 0.00 0.00 75 1012.4
20260506180517 66 225 3.0 7.0 0.00 0.00 0.00 75 1012.4
20260506175517 66 68 6.0 13.0 0.00 0.00 0.00 74 1012.3
20260506174519 66 90 4.0 12.0 0.00 0.00 0.00 74 1012.2
20260506173520 67 90 4.0 11.0 0.00 0.00 0.00 74 1012.3
20260506172517 66 90 6.0 11.0 0.00 0.00 0.00 73 1012.3
20260506171517 67 68 7.0 16.0 0.00 0.00 0.00 73 1012.3
20260506170539 68 113 6.0 15.0 0.00 0.00 0.00 71 1012.3
20260506165518 68 225 4.0 9.0 0.00 0.00 0.00 71 1012.4
20260506164517 67 68 6.0 14.0 0.00 0.00 0.00 71 1012.2
20260506163537 68 90 5.0 14.0 0.00 0.00 0.00 69 1012.3
20260506162519 69 293 4.0 9.0 0.00 0.00 0.00 69 1012.3
20260506161537 68 90 6.0 14.0 0.00 0.00 0.00 69 1012.1
20260506160517 69 90 5.0 11.0 0.00 0.00 0.00 67 1012.2
20260506155519 68 90 5.0 11.0 0.00 0.00 0.00 69 1012.2
20260506154518 68 113 8.0 17.0 0.00 0.00 0.00 67 1012.2
20260506153517 69 68 8.0 17.0 0.00 0.00 0.00 66 1012.1
20260506152559 69 90 5.0 12.0 0.00 0.00 0.00 66 1012.1
20260506151517 69 68 4.0 9.0 0.00 0.00 0.00 68 1012.1
20260506150517 69 113 6.0 13.0 0.00 0.00 0.00 70 1012.2
20260506145537 69 135 5.0 15.0 0.00 0.00 0.00 70 1012.3
20260506144519 69 113 5.0 17.0 0.00 0.00 0.00 68 1012.4
20260506143538 70 225 5.0 14.0 0.00 0.00 0.00 69 1012.5
20260506142517 70 68 6.0 16.0 0.00 0.00 0.00 70 1012.4
20260506141637 70 68 6.0 18.0 0.00 0.00 0.00 69 1012.5
20260506140519 70 113 7.0 18.0 0.00 0.00 0.00 69 1012.5
20260506135519 70 68 7.0 14.0 0.00 0.00 0.00 69 1012.5
20260506134517 70 113 7.0 23.0 0.00 0.00 0.00 68 1012.6
20260506133517 70 90 6.0 14.0 0.00 0.00 0.00 69 1012.5